| time (UTC) | temp C | wind direction | speed KPH | gust KPH | rain 1hr cm | rain 24hr cm | rain mn cm | humidity % | barometer mb |
| 20260503013539 | 14 | 93 | 4.8 | 14.5 | 0.00 | 0.00 | 0.00 | 49 | 1017.6 |
| 20260503013039 | 14 | 105 | 3.2 | 9.7 | 0.00 | 0.00 | 0.00 | 49 | 1017.6 |
| 20260503012540 | 15 | 86 | 3.2 | 9.7 | 0.00 | 0.00 | 0.00 | 49 | 1017.6 |
| 20260503012036 | 15 | 80 | 3.2 | 9.7 | 0.00 | 0.00 | 0.00 | 48 | 1017.6 |
| 20260503011541 | 15 | 84 | 3.2 | 12.9 | 0.00 | 0.00 | 0.00 | 48 | 1017.6 |
| 20260503011038 | 15 | 80 | 4.8 | 12.9 | 0.00 | 0.00 | 0.00 | 48 | 1017.7 |
| 20260503010535 | 15 | 71 | 3.2 | 12.9 | 0.00 | 0.00 | 0.00 | 48 | 1017.5 |
| 20260503010035 | 15 | 85 | 3.2 | 12.9 | 0.00 | 0.00 | 0.00 | 47 | 1017.6 |
| 20260503005534 | 15 | 136 | 3.2 | 8.0 | 0.00 | 0.00 | 0.00 | 47 | 1017.6 |
| 20260503005033 | 15 | 103 | 1.6 | 9.7 | 0.00 | 0.00 | 0.00 | 47 | 1017.6 |
| 20260503004533 | 15 | 130 | 1.6 | 12.9 | 0.00 | 0.00 | 0.00 | 47 | 1017.6 |
| 20260503004032 | 15 | 88 | 3.2 | 12.9 | 0.00 | 0.00 | 0.00 | 46 | 1017.7 |
| 20260503003534 | 15 | 71 | 4.8 | 12.9 | 0.00 | 0.00 | 0.00 | 47 | 1017.7 |
| 20260503003032 | 15 | 95 | 3.2 | 9.7 | 0.00 | 0.00 | 0.00 | 47 | 1017.7 |
| 20260503002532 | 15 | 82 | 1.6 | 6.4 | 0.00 | 0.00 | 0.00 | 46 | 1017.8 |
| 20260503002036 | 15 | 71 | 1.6 | 8.0 | 0.00 | 0.00 | 0.00 | 46 | 1017.8 |
| 20260503001531 | 15 | 61 | 3.2 | 8.0 | 0.00 | 0.00 | 0.00 | 46 | 1017.8 |
| 20260503001031 | 15 | 46 | 1.6 | 8.0 | 0.00 | 0.00 | 0.00 | 47 | 1017.7 |
| 20260503000533 | 15 | 49 | 1.6 | 8.0 | 0.00 | 0.00 | 0.00 | 47 | 1017.9 |
| 20260503000029 | 15 | 19 | 1.6 | 8.0 | 0.00 | 0.00 | 0.00 | 47 | 1017.8 |
| 20260502235528 | 15 | 298 | 1.6 | 8.0 | 0.00 | 0.00 | 0.00 | 48 | 1017.9 |
| 20260502235027 | 15 | 19 | 1.6 | 8.0 | 0.00 | 0.00 | 0.00 | 47 | 1018.1 |
| 20260502234527 | 15 | 48 | 0.0 | 8.0 | 0.00 | 0.00 | 0.00 | 47 | 1018.1 |
| 20260502234027 | 16 | 5 | 1.6 | 8.0 | 0.00 | 0.00 | 0.00 | 47 | 1018.1 |
| 20260502233526 | 15 | 65 | 1.6 | 8.0 | 0.00 | 0.00 | 0.00 | 46 | 1018.2 |
| 20260502233126 | 15 | 318 | 1.6 | 4.8 | 0.00 | 0.00 | 0.00 | 47 | 1018.2 |
| 20260502232525 | 15 | 34 | 0.0 | 4.8 | 0.00 | 0.00 | 0.00 | 48 | 1018.3 |
| 20260502232025 | 15 | 313 | 1.6 | 6.4 | 0.00 | 0.00 | 0.00 | 47 | 1018.4 |
| 20260502231527 | 15 | 360 | 1.6 | 6.4 | 0.00 | 0.00 | 0.00 | 47 | 1018.4 |
| 20260502231025 | 15 | 360 | 1.6 | 6.4 | 0.00 | 0.00 | 0.00 | 47 | 1018.4 |
| 20260502230524 | 16 | 42 | 1.6 | 8.0 | 0.00 | 0.00 | 0.00 | 47 | 1018.4 |
| 20260502230125 | 16 | 44 | 1.6 | 8.0 | 0.00 | 0.00 | 0.00 | 46 | 1018.5 |
| 20260502225521 | 15 | 291 | 1.6 | 4.8 | 0.00 | 0.00 | 0.00 | 46 | 1018.6 |
| 20260502225021 | 15 | 290 | 1.6 | 6.4 | 0.00 | 0.00 | 0.00 | 45 | 1018.6 |
| 20260502224521 | 16 | 57 | 0.0 | 6.4 | 0.00 | 0.00 | 0.00 | 45 | 1018.6 |
| 20260502224021 | 16 | 264 | 0.0 | 4.8 | 0.00 | 0.00 | 0.00 | 44 | 1018.7 |
| 20260502223520 | 16 | 300 | 1.6 | 6.4 | 0.00 | 0.00 | 0.00 | 44 | 1018.6 |
| 20260502223020 | 16 | 43 | 1.6 | 6.4 | 0.00 | 0.00 | 0.00 | 44 | 1018.6 |
| 20260502222519 | 16 | 332 | 0.0 | 6.4 | 0.00 | 0.00 | 0.00 | 43 | 1018.6 |
| 20260502222019 | 16 | 119 | 0.0 | 6.4 | 0.00 | 0.00 | 0.00 | 43 | 1018.7 |
| 20260502221517 | 16 | 299 | 1.6 | 8.0 | 0.00 | 0.00 | 0.00 | 43 | 1018.7 |
| 20260502221017 | 16 | 74 | 1.6 | 8.0 | 0.00 | 0.00 | 0.00 | 42 | 1018.7 |
| 20260502220516 | 16 | 15 | 0.0 | 4.8 | 0.00 | 0.00 | 0.00 | 42 | 1018.7 |
| 20260502220017 | 16 | 137 | 1.6 | 8.0 | 0.00 | 0.00 | 0.00 | 41 | 1018.7 |
| 20260502215514 | 16 | 48 | 1.6 | 8.0 | 0.00 | 0.00 | 0.00 | 41 | 1018.7 |
| 20260502215013 | 16 | 101 | 1.6 | 4.8 | 0.00 | 0.00 | 0.00 | 41 | 1018.7 |
| 20260502214513 | 16 | 40 | 0.0 | 4.8 | 0.00 | 0.00 | 0.00 | 40 | 1018.8 |
| 20260502214013 | 16 | 36 | 1.6 | 4.8 | 0.00 | 0.00 | 0.00 | 40 | 1018.8 |
| 20260502213518 | 16 | 16 | 1.6 | 9.7 | 0.00 | 0.00 | 0.00 | 40 | 1018.8 |
| 20260502213014 | 16 | 355 | 3.2 | 9.7 | 0.00 | 0.00 | 0.00 | 40 | 1018.8 |
| 20260502212513 | 16 | 342 | 1.6 | 6.4 | 0.00 | 0.00 | 0.00 | 40 | 1019.0 |
| 20260502212011 | 16 | 14 | 1.6 | 6.4 | 0.00 | 0.00 | 0.00 | 41 | 1018.9 |
| 20260502211520 | 16 | 302 | 1.6 | 4.8 | 0.00 | 0.00 | 0.00 | 42 | 1018.9 |
| 20260502211015 | 16 | 360 | 1.6 | 6.4 | 0.00 | 0.00 | 0.00 | 41 | 1018.9 |
| 20260502210511 | 16 | 44 | 1.6 | 6.4 | 0.00 | 0.00 | 0.00 | 40 | 1018.9 |
| 20260502210011 | 16 | 351 | 1.6 | 6.4 | 0.00 | 0.00 | 0.00 | 40 | 1018.9 |
| 20260502205511 | 16 | 105 | 1.6 | 6.4 | 0.00 | 0.00 | 0.00 | 40 | 1019.1 |
| 20260502205011 | 16 | 58 | 1.6 | 6.4 | 0.00 | 0.00 | 0.00 | 40 | 1019.0 |
| 20260502204510 | 16 | 355 | 0.0 | 6.4 | 0.00 | 0.00 | 0.00 | 39 | 1019.0 |
| 20260502204011 | 16 | 61 | 1.6 | 6.4 | 0.00 | 0.00 | 0.00 | 40 | 1019.1 |
| 20260502203509 | 16 | 36 | 1.6 | 4.8 | 0.00 | 0.00 | 0.00 | 40 | 1019.2 |
| 20260502203009 | 16 | 78 | 1.6 | 4.8 | 0.00 | 0.00 | 0.00 | 40 | 1019.1 |
| 20260502202508 | 16 | 78 | 1.6 | 4.8 | 0.00 | 0.00 | 0.00 | 38 | 1019.1 |
| 20260502202008 | 16 | 261 | 1.6 | 6.4 | 0.00 | 0.00 | 0.00 | 38 | 1019.1 |
| 20260502201507 | 16 | 269 | 1.6 | 4.8 | 0.00 | 0.00 | 0.00 | 38 | 1019.1 |
| 20260502201007 | 16 | 5 | 1.6 | 4.8 | 0.00 | 0.00 | 0.00 | 38 | 1019.2 |
| 20260502200507 | 17 | 338 | 1.6 | 4.8 | 0.00 | 0.00 | 0.00 | 38 | 1019.1 |
| 20260502200007 | 17 | 137 | 1.6 | 4.8 | 0.00 | 0.00 | 0.00 | 36 | 1019.3 |
| 20260502195507 | 17 | 74 | 1.6 | 6.4 | 0.00 | 0.00 | 0.00 | 37 | 1019.2 |
| 20260502195006 | 17 | 117 | 1.6 | 6.4 | 0.00 | 0.00 | 0.00 | 36 | 1019.2 |
| 20260502194505 | 17 | 65 | 1.6 | 6.4 | 0.00 | 0.00 | 0.00 | 37 | 1019.2 |
| 20260502194005 | 17 | 15 | 1.6 | 6.4 | 0.00 | 0.00 | 0.00 | 37 | 1019.3 |
| 20260502193505 | 17 | 148 | 0.0 | 4.8 | 0.00 | 0.00 | 0.00 | 36 | 1019.3 |
| 20260502193005 | 17 | 5 | 1.6 | 4.8 | 0.00 | 0.00 | 0.00 | 36 | 1019.2 |
| 20260502192505 | 17 | 42 | 1.6 | 9.7 | 0.00 | 0.00 | 0.00 | 35 | 1019.3 |
| 20260502192005 | 17 | 80 | 1.6 | 12.9 | 0.00 | 0.00 | 0.00 | 35 | 1019.3 |
| 20260502191503 | 17 | 81 | 3.2 | 12.9 | 0.00 | 0.00 | 0.00 | 35 | 1019.2 |
| 20260502191003 | 17 | 74 | 3.2 | 8.0 | 0.00 | 0.00 | 0.00 | 36 | 1019.2 |
| 20260502190503 | 17 | 75 | 3.2 | 8.0 | 0.00 | 0.00 | 0.00 | 36 | 1019.3 |
| 20260502190004 | 17 | 92 | 3.2 | 8.0 | 0.00 | 0.00 | 0.00 | 36 | 1019.3 |
| 20260502185502 | 17 | 104 | 3.2 | 6.4 | 0.00 | 0.00 | 0.00 | 37 | 1019.3 |
| 20260502185002 | 17 | 78 | 1.6 | 4.8 | 0.00 | 0.00 | 0.00 | 37 | 1019.4 |
| 20260502184503 | 17 | 31 | 1.6 | 8.0 | 0.00 | 0.00 | 0.00 | 37 | 1019.5 |
| 20260502184002 | 17 | 53 | 1.6 | 4.8 | 0.00 | 0.00 | 0.00 | 37 | 1019.4 |
| 20260502183504 | 17 | 63 | 1.6 | 4.8 | 0.00 | 0.00 | 0.00 | 38 | 1019.3 |
| 20260502183005 | 17 | 34 | 0.0 | 4.8 | 0.00 | 0.00 | 0.00 | 38 | 1019.2 |
| 20260502182501 | 17 | 78 | 1.6 | 4.8 | 0.00 | 0.00 | 0.00 | 36 | 1019.3 |
| 20260502182002 | 17 | 144 | 0.0 | 3.2 | 0.00 | 0.00 | 0.00 | 35 | 1019.3 |
| 20260502181600 | 17 | 157 | 0.0 | 3.2 | 0.00 | 0.00 | 0.00 | 35 | 1019.3 |
| 20260502181101 | 18 | 159 | 0.0 | 4.8 | 0.00 | 0.00 | 0.00 | 36 | 1019.3 |
| 20260502180600 | 18 | 191 | 0.0 | 1.6 | 0.00 | 0.00 | 0.00 | 36 | 1019.3 |
| 20260502164053 | 21 | 155 | 3.2 | 12.9 | 0.00 | 0.00 | 0.00 | 33 | 1019.7 |
| 20260502163552 | 21 | 161 | 4.8 | 11.3 | 0.00 | 0.00 | 0.00 | 32 | 1019.9 |
| 20260502163056 | 21 | 257 | 1.6 | 6.4 | 0.00 | 0.00 | 0.00 | 34 | 1019.9 |
| 20260502162554 | 21 | 176 | 3.2 | 12.9 | 0.00 | 0.00 | 0.00 | 35 | 1019.9 |
| 20260502162055 | 21 | 159 | 4.8 | 16.1 | 0.00 | 0.00 | 0.00 | 32 | 1020.1 |
| 20260502161555 | 21 | 128 | 4.8 | 11.3 | 0.00 | 0.00 | 0.00 | 32 | 1020.1 |
| 20260502161050 | 21 | 190 | 3.2 | 14.5 | 0.00 | 0.00 | 0.00 | 33 | 1020.1 |
| 20260502160550 | 21 | 205 | 6.4 | 14.5 | 0.00 | 0.00 | 0.00 | 32 | 1020.2 |
| 20260502152046 | 21 | 106 | 1.6 | 9.7 | 0.00 | 0.00 | 0.00 | 33 | 1020.8 |
| 20260502151550 | 21 | 88 | 3.2 | 12.9 | 0.00 | 0.00 | 0.00 | 33 | 1020.8 |
| 20260502151045 | 21 | 273 | 3.2 | 12.9 | 0.00 | 0.00 | 0.00 | 35 | 1020.9 |
| 20260502150544 | 21 | 175 | 4.8 | 14.5 | 0.00 | 0.00 | 0.00 | 31 | 1021.0 |
| 20260502130532 | 21 | 177 | 4.8 | 16.1 | 0.00 | 0.00 | 0.00 | 34 | 1022.5 |
| 20260502123529 | 21 | 161 | 3.2 | 12.9 | 0.00 | 0.00 | 0.00 | 37 | 1022.8 |
| 20260502123026 | 21 | 130 | 6.4 | 14.5 | 0.00 | 0.00 | 0.00 | 35 | 1022.8 |
| 20260502122525 | 20 | 240 | 3.2 | 16.1 | 0.00 | 0.00 | 0.00 | 38 | 1022.7 |
| 20260502122025 | 20 | 123 | 6.4 | 16.1 | 0.00 | 0.00 | 0.00 | 35 | 1023.0 |
| 20260502121524 | 20 | 191 | 8.0 | 17.7 | 0.00 | 0.00 | 0.00 | 36 | 1023.0 |
| 20260502121023 | 20 | 171 | 4.8 | 17.7 | 0.00 | 0.00 | 0.00 | 41 | 1023.0 |
| 20260502120523 | 20 | 133 | 4.8 | 11.3 | 0.00 | 0.00 | 0.00 | 40 | 1023.1 |
| 20260502115524 | 20 | 186 | 3.2 | 14.5 | 0.00 | 0.00 | 0.00 | 40 | 1023.2 |
| 20260502115020 | 20 | 146 | 6.4 | 14.5 | 0.00 | 0.00 | 0.00 | 40 | 1023.4 |
| 20260502114519 | 20 | 251 | 1.6 | 14.5 | 0.00 | 0.00 | 0.00 | 43 | 1023.4 |
| 20260502114019 | 20 | 153 | 4.8 | 14.5 | 0.00 | 0.00 | 0.00 | 41 | 1023.6 |
| 20260502113519 | 20 | 174 | 3.2 | 14.5 | 0.00 | 0.00 | 0.00 | 37 | 1023.6 |
| 20260502113019 | 20 | 215 | 3.2 | 14.5 | 0.00 | 0.00 | 0.00 | 43 | 1023.7 |
| 20260502112517 | 20 | 213 | 4.8 | 9.7 | 0.00 | 0.00 | 0.00 | 39 | 1023.8 |
| 20260502112017 | 20 | 245 | 3.2 | 12.9 | 0.00 | 0.00 | 0.00 | 39 | 1023.8 |
| 20260502111516 | 20 | 182 | 4.8 | 12.9 | 0.00 | 0.00 | 0.00 | 42 | 1024.0 |
| 20260502111016 | 20 | 172 | 6.4 | 12.9 | 0.00 | 0.00 | 0.00 | 38 | 1023.9 |
| 20260502110515 | 20 | 192 | 3.2 | 14.5 | 0.00 | 0.00 | 0.00 | 43 | 1024.0 |
| 20260502110019 | 20 | 148 | 6.4 | 12.9 | 0.00 | 0.00 | 0.00 | 41 | 1024.1 |
| 20260502105516 | 19 | 128 | 3.2 | 16.1 | 0.00 | 0.00 | 0.00 | 44 | 1024.1 |
| 20260502105014 | 20 | 201 | 4.8 | 16.1 | 0.00 | 0.00 | 0.00 | 46 | 1024.2 |
| 20260502104534 | 19 | 173 | 1.6 | 16.1 | 0.00 | 0.00 | 0.00 | 46 | 1024.2 |
| 20260502104011 | 19 | 202 | 3.2 | 16.1 | 0.00 | 0.00 | 0.00 | 43 | 1024.3 |
| 20260502103511 | 19 | 157 | 4.8 | 19.3 | 0.00 | 0.00 | 0.00 | 46 | 1024.4 |
| 20260502103010 | 19 | 208 | 6.4 | 19.3 | 0.00 | 0.00 | 0.00 | 43 | 1024.3 |
| 20260502102509 | 18 | 153 | 3.2 | 14.5 | 0.00 | 0.00 | 0.00 | 44 | 1024.4 |
| 20260502102009 | 18 | 132 | 3.2 | 14.5 | 0.00 | 0.00 | 0.00 | 46 | 1024.6 |
| 20260502101506 | 18 | 158 | 3.2 | 14.5 | 0.00 | 0.00 | 0.00 | 46 | 1024.6 |
| 20260502101006 | 19 | 180 | 4.8 | 11.3 | 0.00 | 0.00 | 0.00 | 44 | 1024.7 |
| 20260502100505 | 18 | 191 | 3.2 | 9.7 | 0.00 | 0.00 | 0.00 | 46 | 1024.6 |
| 20260502091053 | 18 | 167 | 6.4 | 16.1 | 0.00 | 0.00 | 0.00 | 44 | 1025.2 |
| 20260502090552 | 18 | 69 | 6.4 | 12.9 | 0.00 | 0.00 | 0.00 | 42 | 1025.1 |
| 20260502071021 | 16 | 168 | 4.8 | 11.3 | 0.00 | 0.00 | 0.00 | 50 | 1025.7 |
| 20260502070522 | 16 | 147 | 6.4 | 11.3 | 0.00 | 0.00 | 0.00 | 50 | 1025.7 |
| 20260502070022 | 16 | 185 | 3.2 | 8.0 | 0.00 | 0.00 | 0.00 | 51 | 1025.7 |
| 20260502065518 | 16 | 132 | 4.8 | 8.0 | 0.00 | 0.00 | 0.00 | 51 | 1025.7 |
| 20260502065017 | 16 | 175 | 4.8 | 9.7 | 0.00 | 0.00 | 0.00 | 52 | 1025.8 |
| 20260502064515 | 15 | 132 | 3.2 | 8.0 | 0.00 | 0.00 | 0.00 | 53 | 1025.7 |
| 20260502064013 | 15 | 182 | 3.2 | 8.0 | 0.00 | 0.00 | 0.00 | 53 | 1025.8 |
| 20260502063513 | 15 | 137 | 4.8 | 8.0 | 0.00 | 0.00 | 0.00 | 52 | 1025.7 |
| 20260502063011 | 15 | 140 | 3.2 | 6.4 | 0.00 | 0.00 | 0.00 | 52 | 1025.8 |
| 20260502062509 | 15 | 161 | 3.2 | 8.0 | 0.00 | 0.00 | 0.00 | 54 | 1025.8 |
| 20260502062008 | 15 | 159 | 3.2 | 8.0 | 0.00 | 0.00 | 0.00 | 53 | 1025.8 |
| 20260502061506 | 15 | 138 | 0.0 | 4.8 | 0.00 | 0.00 | 0.00 | 54 | 1025.7 |
| 20260502061004 | 15 | 137 | 0.0 | 6.4 | 0.00 | 0.00 | 0.00 | 54 | 1025.7 |
| 20260502060503 | 15 | 136 | 1.6 | 9.7 | 0.00 | 0.00 | 0.00 | 54 | 1025.8 |
| 20260502060002 | 15 | 84 | 0.0 | 9.7 | 0.00 | 0.00 | 0.00 | 55 | 1025.7 |
| 20260502055501 | 14 | 111 | 1.6 | 6.4 | 0.00 | 0.00 | 0.00 | 54 | 1025.7 |
| 20260502055102 | 14 | 115 | 0.0 | 4.8 | 0.00 | 0.00 | 0.00 | 55 | 1025.8 |
| 20260502054600 | 14 | 115 | 0.0 | 4.8 | 0.00 | 0.00 | 0.00 | 55 | 1025.8 |
| 20260502054100 | 14 | 115 | 1.6 | 4.8 | 0.00 | 0.00 | 0.00 | 55 | 1025.8 |
| 20260502053558 | 13 | 115 | 3.2 | 4.8 | 0.00 | 0.00 | 0.00 | 55 | 1025.7 |
| 20260502053055 | 13 | 117 | 1.6 | 4.8 | 0.00 | 0.00 | 0.00 | 55 | 1025.7 |
| 20260502052554 | 13 | 118 | 1.6 | 4.8 | 0.00 | 0.00 | 0.00 | 56 | 1025.8 |
| 20260502052054 | 13 | 120 | 0.0 | 4.8 | 0.00 | 0.00 | 0.00 | 57 | 1025.8 |
| 20260502051634 | 13 | 116 | 1.6 | 4.8 | 0.00 | 0.00 | 0.00 | 57 | 1025.7 |
| 20260502051053 | 13 | 78 | 0.0 | 3.2 | 0.00 | 0.00 | 0.00 | 56 | 1025.7 |
| 20260502050552 | 13 | 78 | 1.6 | 4.8 | 0.00 | 0.00 | 0.00 | 56 | 1025.7 |
| 20260502050052 | 13 | 79 | 0.0 | 4.8 | 0.00 | 0.00 | 0.00 | 56 | 1025.7 |
| 20260502045552 | 12 | 78 | 1.6 | 6.4 | 0.00 | 0.00 | 0.00 | 56 | 1025.7 |
| 20260502045051 | 12 | 83 | 0.0 | 6.4 | 0.00 | 0.00 | 0.00 | 55 | 1025.7 |
| 20260502044601 | 12 | 56 | 1.6 | 6.4 | 0.00 | 0.00 | 0.00 | 56 | 1025.7 |
| 20260502044049 | 12 | 30 | 0.0 | 4.8 | 0.00 | 0.00 | 0.00 | 56 | 1025.7 |
| 20260502043548 | 12 | 64 | 0.0 | 4.8 | 0.00 | 0.00 | 0.00 | 55 | 1025.6 |
| 20260502043050 | 13 | 33 | 1.6 | 8.0 | 0.00 | 0.00 | 0.00 | 55 | 1025.6 |
| 20260502042551 | 13 | 46 | 3.2 | 8.0 | 0.00 | 0.00 | 0.00 | 55 | 1025.7 |
| 20260502042048 | 13 | 43 | 3.2 | 6.4 | 0.00 | 0.00 | 0.00 | 55 | 1025.6 |
| 20260502041547 | 13 | 69 | 1.6 | 8.0 | 0.00 | 0.00 | 0.00 | 55 | 1025.7 |
| 20260502041050 | 13 | 46 | 3.2 | 8.0 | 0.00 | 0.00 | 0.00 | 55 | 1025.7 |
| 20260502040546 | 13 | 16 | 3.2 | 8.0 | 0.00 | 0.00 | 0.00 | 55 | 1025.8 |
| 20260502040046 | 12 | 42 | 1.6 | 6.4 | 0.00 | 0.00 | 0.00 | 55 | 1025.7 |
| 20260502035546 | 13 | 44 | 0.0 | 6.4 | 0.00 | 0.00 | 0.00 | 55 | 1025.7 |
| 20260502035045 | 13 | 12 | 1.6 | 8.0 | 0.00 | 0.00 | 0.00 | 55 | 1025.8 |
| 20260502034547 | 12 | 81 | 1.6 | 8.0 | 0.00 | 0.00 | 0.00 | 56 | 1025.8 |
| 20260502034045 | 12 | 74 | 1.6 | 4.8 | 0.00 | 0.00 | 0.00 | 56 | 1025.8 |
| 20260502033545 | 12 | 78 | 1.6 | 4.8 | 0.00 | 0.00 | 0.00 | 56 | 1025.8 |
| 20260502033050 | 12 | 30 | 1.6 | 4.8 | 0.00 | 0.00 | 0.00 | 56 | 1025.9 |
| 20260502032543 | 12 | 117 | 0.0 | 6.4 | 0.00 | 0.00 | 0.00 | 56 | 1025.9 |
| 20260502032043 | 12 | 86 | 1.6 | 6.4 | 0.00 | 0.00 | 0.00 | 56 | 1026.0 |
| 20260502031600 | 12 | 32 | 1.6 | 4.8 | 0.00 | 0.00 | 0.00 | 55 | 1026.0 |
| 20260502031043 | 12 | 85 | 1.6 | 6.4 | 0.00 | 0.00 | 0.00 | 56 | 1025.9 |
| 20260502030545 | 12 | 74 | 1.6 | 4.8 | 0.00 | 0.00 | 0.00 | 57 | 1026.0 |
| 20260502030042 | 12 | 74 | 0.0 | 4.8 | 0.00 | 0.00 | 0.00 | 56 | 1026.0 |
| 20260502025541 | 12 | 74 | 1.6 | 4.8 | 0.00 | 0.00 | 0.00 | 56 | 1026.1 |
| 20260502025041 | 12 | 75 | 3.2 | 4.8 | 0.00 | 0.00 | 0.00 | 55 | 1026.1 |
| 20260502024541 | 13 | 360 | 1.6 | 6.4 | 0.00 | 0.00 | 0.00 | 55 | 1026.1 |
| 20260502024040 | 13 | 30 | 1.6 | 8.0 | 0.00 | 0.00 | 0.00 | 54 | 1026.0 |
| 20260502023642 | 13 | 53 | 1.6 | 8.0 | 0.00 | 0.00 | 0.00 | 55 | 1026.1 |
| 20260502023040 | 12 | 26 | 1.6 | 6.4 | 0.00 | 0.00 | 0.00 | 55 | 1026.1 |
| 20260502022540 | 12 | 29 | 1.6 | 6.4 | 0.00 | 0.00 | 0.00 | 55 | 1026.2 |
| 20260502022038 | 12 | 36 | 1.6 | 4.8 | 0.00 | 0.00 | 0.00 | 56 | 1026.2 |
| 20260502021539 | 12 | 51 | 3.2 | 4.8 | 0.00 | 0.00 | 0.00 | 55 | 1026.2 |
| 20260502021038 | 12 | 360 | 3.2 | 4.8 | 0.00 | 0.00 | 0.00 | 56 | 1026.2 |
| 20260502020541 | 12 | 28 | 1.6 | 4.8 | 0.00 | 0.00 | 0.00 | 56 | 1026.1 |
| 20260502020041 | 12 | 18 | 1.6 | 4.8 | 0.00 | 0.00 | 0.00 | 56 | 1026.2 |
| 20260502015538 | 12 | 12 | 1.6 | 4.8 | 0.00 | 0.00 | 0.00 | 56 | 1026.2 |
| 20260502015037 | 12 | 5 | 1.6 | 4.8 | 0.00 | 0.00 | 0.00 | 56 | 1026.2 |
| 20260502014538 | 12 | 5 | 3.2 | 4.8 | 0.00 | 0.00 | 0.00 | 56 | 1026.4 |
| 20260502014035 | 12 | 360 | 1.6 | 4.8 | 0.00 | 0.00 | 0.00 | 56 | 1026.3 |